Weather reports worldwide

Advertisment
Rodez, France (7552): temperature & dewpoint: 20.09.2018 17:00:00 - 26.09.2018 17:00:00 (CEST)Rodez, France (7552): temperature 5cm: 20.09.2018 17:00:00 - 26.09.2018 17:00:00 (CEST)Rodez, France (7552): wind speed & gusts: 20.09.2018 17:00:00 - 26.09.2018 17:00:00 (CEST)Rodez, France (7552): wind direction: 20.09.2018 17:00:00 - 26.09.2018 17:00:00 (CEST)Rodez, France (7552): reduced air pressure: 20.09.2018 17:00:00 - 26.09.2018 17:00:00 (CEST)Rodez, France (7552): visibility: 20.09.2018 17:00:00 - 26.09.2018 17:00:00 (CEST)Rodez, France (7552): sunshine duration: 20.09.2018 17:00:00 - 26.09.2018 17:00:00 (CEST)Rodez, France (7552): precipitation: 20.09.2018 17:00:00 - 26.09.2018 17:00:00 (CEST)
Date & Time tt [°C] td [°C] tt 5cm [°C] ff [km/h] ff [kn] fx [km/h] fx [kn] dd ppp [hPa] vv [km] sd [min] rr [mm]
26.09.2018 17:00:00 22,0 7,0 26,4 24 13 40 22 SE 1028,9 10 60 0,0
26.09.2018 16:00:00 22,5 7,1 26,4 27 14 45 24 SE 1029,2 9 60 0,0
26.09.2018 15:00:00 21,5 7,3 26,5 26 14 45 25 ESE 1029,9 10 60 0,0
26.09.2018 14:00:00 21,6 7,0 26,0 27 14 47 26 SE 1030,2 10 60 0,0
26.09.2018 13:00:00 20,9 6,4 24,9 28 15 47 26 SE 1030,8 12 60 0,0
26.09.2018 12:00:00 20,1 7,5 23,3 26 14 46 25 SE 1030,9 15 60 0,0
26.09.2018 11:00:00 18,7 7,5 20,2 23 12 49 26 ESE 1031,0 18 60 0,0
26.09.2018 10:00:00 17,1 9,0 17,5 25 14 45 25 SE 1031,1 26 60 0,0
26.09.2018 09:00:00 15,6 10,8 10,4 14 8 30 16 ESE 1030,9 33 29 0,0
26.09.2018 08:00:00 11,4 9,5 10,2 6 4 16 8 E 1031,2 39 0 0,0
26.09.2018 07:00:00 12,3 9,8 10,8 10 5 23 12 ENE 1030,2 39 0 0,0
26.09.2018 06:00:00 12,6 10,1 11,3 10 5 20 11 ENE 1030,0 39 0 0,0
26.09.2018 05:00:00 13,2 10,4 11,0 14 7 29 16 ESE 1029,9 44 0 0,0
26.09.2018 04:00:00 12,1 9,5 10,3 12 7 27 15 E 1030,2 40 0 0,0
26.09.2018 03:00:00 11,7 9,1 7,8 11 6 14 8 ENE 1030,4 37 0 0,0
26.09.2018 02:00:00 11,6 9,0 5,4 8 5 10 5 E 1030,4 38 0 0,0
26.09.2018 01:00:00 10,8 8,0 6,6 4 2 8 4 SE 1030,4 35 0 0,0
26.09.2018 00:00:00 13,4 9,1 8,6 9 5 11 6 ENE 1029,6 47 0 0,0
25.09.2018 23:00:00 12,9 9,2 7,3 4 2 12 6 E 1029,4 45 0 0,0
25.09.2018 22:00:00 13,7 8,9 9,4 8 5 14 8 SSE 1028,7 55 0 0,0
25.09.2018 21:00:00 15,4 9,1 10,3 8 4 13 7 SSE 1027,9 60 0 0,0
25.09.2018 20:00:00 16,6 8,8 13,3 10 5 18 10 S 1027,0 60 12 0,0
25.09.2018 19:00:00 20,3 8,9 21,6 12 7 23 12 S 1025,7 41 60 0,0
25.09.2018 18:00:00 21,5 8,7 21,2 16 8 28 15 S 1025,1 49 32 0,0
25.09.2018 17:00:00 21,6 9,2 22,1 16 8 28 15 SSE 1025,2 58 26 0,0
25.09.2018 16:00:00 22,6 8,7 23,7 19 10 34 18 S 1025,0 20 46 0,0
25.09.2018 15:00:00 20,8 9,4 23,7 16 9 36 19 S 1025,8 39 42 0,0
25.09.2018 14:00:00 20,4 5,6 26,3 6 3 16 9 NNE 1026,4 60 60 0,0
25.09.2018 13:00:00 17,5 4,1 21,3 5 3 18 10 SE 1027,6 35 49 0,0
25.09.2018 12:00:00 14,6 4,3 17,7 8 4 14 8 NW 1028,4 20 23 0,0
25.09.2018 11:00:00 12,9 3,5 14,6 5 3 15 8 E 1028,5 60 31 0,0
25.09.2018 10:00:00 10,2 2,5 10,5 9 5 13 7 E 1028,7 60 58 0,0
25.09.2018 09:00:00 5,7 2,7 -0,4 3 2 10 5 SE 1029,7 60 31 0,0
25.09.2018 08:00:00 2,1 0,6 -1,8 4 2 6 4 SSE 1030,5 60 0 0,0
25.09.2018 07:00:00 2,4 0,3 -1,7 2 1 5 3 SSE 1030,2 60 0 0,0
25.09.2018 06:00:00 2,5 0,4 -1,7 2 1 6 4 NNW 1030,0 60 0 0,0
25.09.2018 05:00:00 2,8 -0,1 -1,3 6 3 6 4 WSW 1030,0 60 0 0,0
25.09.2018 04:00:00 5,9 0,2 3,3 0 0 13 7 N 1029,6 60 0 0,0
25.09.2018 03:00:00 8,1 0,8 5,0 9 5 16 8 N 1029,1 60 0 0,0
25.09.2018 02:00:00 8,8 0,5 6,1 7 4 17 9 N 1029,2 60 0 0,0
25.09.2018 01:00:00 9,5 0,6 7,6 10 5 22 12 N 1029,2 60 0 0,0
25.09.2018 00:00:00 10,3 0,6 8,5 12 7 25 13 N 1028,9 60 0 0,0
24.09.2018 23:00:00 11,0 1,5 9,4 16 9 31 17 N 1028,7 60 0 0,0
24.09.2018 22:00:00 11,5 3,0 10,1 19 11 37 20 N 1028,5 60 0 0,0
24.09.2018 21:00:00 11,9 3,6 10,6 16 9 38 21 N 1028,4 60 0 0,0
24.09.2018 20:00:00 12,7 3,4 11,6 24 13 44 24 N 1027,8 60 22 0,0
24.09.2018 19:00:00 13,9 3,4 15,6 24 13 45 24 N 1027,1 25 60 0,0
24.09.2018 18:00:00 15,0 4,7 18,8 24 13 48 26 NNE 1027,0 26 60 0,0
24.09.2018 17:00:00 15,7 4,1 19,3 25 14 41 22 N 1026,7 27 60 0,0
24.09.2018 16:00:00 16,2 4,2 21,9 19 11 41 22 N 1026,9 16 58 0,0
24.09.2018 15:00:00 16,1 3,5 21,4 22 12 40 21 N 1027,0 17 60 0,0
24.09.2018 14:00:00 15,4 3,8 20,2 23 12 37 20 N 1027,3 19 60 0,0
24.09.2018 13:00:00 14,2 4,5 19,1 23 12 37 20 N 1027,4 19 60 0,0
24.09.2018 12:00:00 13,1 5,3 17,7 16 9 36 19 N 1027,5 58 60 0,0
24.09.2018 11:00:00 12,4 4,8 15,7 22 12 37 20 N 1027,6 60 60 0,0
24.09.2018 10:00:00 11,7 6,8 12,9 17 9 30 16 N 1027,3 60 60 0,0
24.09.2018 09:00:00 10,7 7,4 9,0 15 8 23 12 N 1026,9 60 39 0,0
24.09.2018 08:00:00 9,8 7,2 9,0 11 6 21 11 N 1026,3 58 0 0,0
24.09.2018 07:00:00 11,1 9,2 10,1 10 5 20 11 NNW 1025,3 60 0 0,0
24.09.2018 06:00:00 13,1 11,0 11,9 15 8 26 14 N 1024,5 60 0 0,0
24.09.2018 05:00:00 14,5 13,9 14,2 9 5 20 11 NW 1023,6 60 0 0,0
24.09.2018 04:00:00 15,2 14,1 14,9 12 6 28 15 NW 1023,3 60 0 0,0
24.09.2018 03:00:00 16,3 16,0 16,0 19 10 34 19 NW 1023,2 60 0 0,2
24.09.2018 02:00:00 17,0 16,8 16,7 23 13 43 23 NW 1023,0 4,0 0 3,6
24.09.2018 01:00:00 17,8 17,0 17,3 22 12 41 22 W 1022,6 5 0 0,2
24.09.2018 00:00:00 18,7 16,5 17,7 24 13 41 22 W 1022,5 51 0 0,0
23.09.2018 23:00:00 20,2 15,8 19,7 24 13 35 19 WNW 1022,3 60 0 0,0
23.09.2018 22:00:00 20,8 15,1 19,9 24 13 36 19 W 1021,8 60 0 0,0
23.09.2018 21:00:00 20,6 14,7 19,6 13 7 18 10 WNW 1021,9 60 0 0,0
23.09.2018 20:00:00 21,4 14,5 20,5 14 8 40 22 NW 1021,4 60 24 0,0
23.09.2018 19:00:00 24,0 13,8 25,1 27 15 40 22 WNW 1020,2 35 37 0,0
23.09.2018 18:00:00 25,3 12,5 26,1 26 14 40 22 W 1019,5 29 44 0,0
23.09.2018 17:00:00 27,0 12,6 26,3 25 13 42 23 W 1019,1 22 42 0,0
23.09.2018 16:00:00 26,8 13,2 30,7 27 14 48 26 W 1019,3 26 60 0,0
23.09.2018 15:00:00 26,5 13,6 31,0 19 11 37 20 WNW 1019,6 37 60 0,0
23.09.2018 14:00:00 24,8 13,0 29,2 16 9 31 17 WNW 1020,8 48 54 0,0
23.09.2018 13:00:00 24,3 13,2 30,3 11 6 24 13 W 1021,5 60 60 0,0
23.09.2018 12:00:00 22,4 12,9 27,5 5 3 22 12 NNW 1022,4 60 60 0,0
23.09.2018 11:00:00 20,6 13,1 24,6 8 4 18 10 WSW 1023,2 60 60 0,0
23.09.2018 10:00:00 19,2 12,0 20,1 8 4 14 8 WNW 1023,3 42 57 0,0
23.09.2018 09:00:00 15,2 8,9 8,7 3 2 6 3 SSE 1023,9 60 39 0,0
23.09.2018 08:00:00 10,3 5,9 7,7 3 2 10 5 SSE 1025,1 60 0 0,0
23.09.2018 07:00:00 12,0 6,1 7,6 4 2 8 4 ESE 1024,4 60 0 0,0
23.09.2018 06:00:00 10,9 5,4 8,1 4 2 4 2 S 1024,8 60 0 0,0
23.09.2018 05:00:00 11,7 5,3 8,5 0 0 6 3 N 1024,8 60 0 0,0
23.09.2018 04:00:00 12,5 5,4 8,9 6 3 8 5 SE 1025,0 60 0 0,0
23.09.2018 03:00:00 12,2 5,4 9,2 4 2 7 4 SE 1025,6 60 0 0,0
23.09.2018 02:00:00 13,0 5,4 9,4 4 2 6 3 SSE 1025,7 60 0 0,0
23.09.2018 01:00:00 12,9 4,6 9,8 4 2 6 3 S 1025,8 60 0 0,0
23.09.2018 00:00:00 14,1 4,7 10,3 4 2 10 6 SSW 1025,7 60 0 0,0
22.09.2018 23:00:00 14,6 4,0 11,4 8 4 13 7 W 1025,4 60 0 0,0
22.09.2018 22:00:00 16,2 2,2 12,0 10 5 14 8 W 1024,6 60 0 0,0
22.09.2018 21:00:00 17,0 0,2 12,4 9 5 16 8 WSW 1024,1 60 0 0,0
22.09.2018 20:00:00 17,8 0,9 15,2 11 6 23 13 W 1023,2 60 25 0,0
22.09.2018 19:00:00 21,8 0,3 22,9 16 8 35 19 WNW 1022,0 27 60 0,0
22.09.2018 18:00:00 23,0 -1,2 26,0 19 11 31 17 W 1021,6 31 60 0,0
22.09.2018 17:00:00 23,3 1,0 27,5 17 9 32 17 W 1021,5 37 60 0,0
22.09.2018 16:00:00 22,4 3,0 28,4 13 7 29 16 NW 1021,9 37 60 0,0
22.09.2018 15:00:00 22,1 0,6 28,0 13 7 22 12 W 1022,1 53 60 0,0
22.09.2018 14:00:00 20,9 2,7 26,7 9 5 23 12 WNW 1022,6 60 60 0,0
22.09.2018 13:00:00 19,1 5,2 24,0 9 5 18 10 WNW 1023,3 60 60 0,0
22.09.2018 12:00:00 17,1 8,0 22,4 8 4 18 10 NW 1023,9 32 60 0,0
22.09.2018 11:00:00 14,1 9,1 17,7 8 4 17 9 NNW 1024,7 60 57 0,0
22.09.2018 10:00:00 11,2 11,2 11,0 5 3 10 5 N 1025,1 11 9 0,0
22.09.2018 09:00:00 9,7 9,6 10,0 3 2 9 5 WNW 1024,9 0,4 0 0,0
22.09.2018 08:00:00 9,9 9,7 9,9 3 2 12 6 NNW 1024,8 0,3 0 0,0
22.09.2018 07:00:00 10,1 9,8 9,5 8 4 16 9 WNW 1024,5 9 0 0,0
22.09.2018 06:00:00 10,1 9,8 9,5 9 5 19 11 WNW 1024,3 13 0 0,0
22.09.2018 05:00:00 10,9 10,4 11,0 14 8 23 12 NW 1024,3 15 0 0,0
22.09.2018 04:00:00 11,2 11,0 11,1 15 8 21 11 NW 1024,5 19 0 0,0
22.09.2018 03:00:00 11,4 11,2 7,4 9 5 13 7 WNW 1024,6 14 0 0,0
22.09.2018 02:00:00 10,5 10,2 7,0 8 4 15 8 W 1024,9 20 0 0,0
22.09.2018 01:00:00 11,0 10,4 8,4 13 7 17 9 WNW 1025,2 60 0 0,0
22.09.2018 00:00:00 11,5 10,2 9,2 5 3 13 7 SW 1024,4 60 0 0,0
21.09.2018 23:00:00 13,3 11,5 12,7 8 4 11 6 W 1024,1 60 0 0,0
21.09.2018 22:00:00 13,8 12,2 13,3 6 3 30 16 WNW 1023,3 60 0 0,0
21.09.2018 21:00:00 13,9 13,4 13,7 22 12 35 19 WNW 1022,8 13 0 0,0
21.09.2018 20:00:00 16,4 14,2 16,5 18 10 37 20 WNW 1021,5 60 0 0,0
21.09.2018 19:00:00 17,2 14,8 17,7 27 14 45 24 NW 1020,7 60 0 0,0
21.09.2018 18:00:00 21,5 12,9 21,7 25 13 40 22 W 1018,7 40 0 0,0
21.09.2018 17:00:00 22,0 12,8 23,3 23 12 38 20 W 1018,3 60 0 0,0
21.09.2018 16:00:00 22,4 12,9 25,4 14 8 31 17 W 1017,9 60 29 0,0
21.09.2018 15:00:00 22,2 12,7 24,0 14 7 29 16 WSW 1018,5 59 43 0,0
21.09.2018 14:00:00 21,2 13,6 23,4 14 8 33 18 WNW 1019,3 60 0 0,0
21.09.2018 13:00:00 20,1 13,8 23,2 14 8 25 14 WNW 1019,4 60 19 0,0
21.09.2018 12:00:00 20,1 14,7 21,9 16 9 25 14 W 1019,1 20 41 0,0
21.09.2018 11:00:00 18,4 13,9 19,6 11 6 20 11 W 1019,2 20 15 0,0
21.09.2018 10:00:00 18,8 11,4 16,2 12 7 19 10 SW 1018,4 60 37 0,0
21.09.2018 09:00:00 15,9 10,4 11,0 5 3 13 7 S 1018,3 60 25 0,0
21.09.2018 08:00:00 12,5 9,0 9,9 5 3 9 5 SSW 1018,6 48 0 0,0
21.09.2018 07:00:00 12,2 8,7 8,6 4 2 8 4 SSE 1017,7 53 0 0,0
21.09.2018 06:00:00 12,5 8,8 8,6 0 0 9 5 N 1017,6 60 0 0,0
21.09.2018 05:00:00 13,6 8,6 10,8 7 4 13 7 ESE 1017,4 60 0 0,0
21.09.2018 04:00:00 16,2 9,4 11,3 11 6 14 7 ENE 1016,7 60 0 0,0
21.09.2018 03:00:00 15,2 9,3 10,7 3 1 9 5 SSE 1017,2 60 0 0,0
21.09.2018 02:00:00 16,5 9,9 12,7 6 4 13 7 SE 1017,2 60 0 0,0
21.09.2018 01:00:00 17,7 10,6 11,2 6 4 22 12 ESE 1017,2 60 0 0,0
21.09.2018 00:00:00 17,2 10,8 11,4 11 6 15 8 SE 1017,3 60 0 0,0
20.09.2018 23:00:00 17,3 10,7 11,5 5 3 9 5 SSE 1017,4 59 0 0,0
20.09.2018 22:00:00 17,6 10,2 12,2 6 3 8 5 S 1017,4 60 0 0,0
20.09.2018 21:00:00 19,8 10,2 - 4 2 5 3 S 1016,6 60 - 0,0
20.09.2018 20:00:00 24,8 9,9 20,4 5 3 16 9 N 1015,4 60 30 0,0
20.09.2018 19:00:00 27,6 10,3 29,8 10 5 18 10 NNW 1015,1 60 60 0,0
20.09.2018 18:00:00 28,8 10,9 33,4 8 4 19 10 NW 1014,8 60 60 0,0
20.09.2018 17:00:00 28,6 9,8 35,4 7 4 22 12 N 1015,3 42 60 0,0

tt = temperature
td = dewpoint
tt 5cm = temperature 5cm
ff = wind speed
fx = gusts
dd = wind direction
ppp = reduced air pressure
vv = visibility
sd = sunshine duration
rr = precipitation

Next stations